[[{"header":{"parameterUnit":"m.s-1","parameterCategory":1,"la1":30.2992,"la2":30.254,"lo1":-89.0895,"lo2":-89.0443,"dy":0.0025,"dx":0.0025,"nx":19,"ny":19,"refTime":"2026-03-29T21:00:00:Z","depth":0,"parameterNumber":2,"parameterNumberName":"U-component_of_WINDS"},"data":[0,0,0,-5.1468,-5.1471,-5.1607,-5.1608,-5.1793,-5.1794,0,0,0,0,0,0,0,0,0,0,0,-5.1434,-5.1435,-5.1468,-5.1472,-5.1607,-5.1608,-5.1792,-5.1794,0,0,0,0,0,0,0,0,0,0,0,-5.1433,-5.1435,-5.1437,-5.1472,-5.1607,-5.1608,-5.1792,-5.1686,0,0,0,0,0,0,0,0,0,0,-5.1552,-5.1525,-5.1434,-5.1437,-5.1473,-5.1607,-5.1608,-5.168,-5.1692,-5.1736,0,-5.1775,0,-5.1788,-5.1807,-5.1808,0,0,0,-5.1467,-5.1516,-5.1547,-5.1437,-5.1474,-5.1607,-5.1545,-5.1687,-5.17,-5.1751,-5.1777,-5.1784,-5.1791,-5.1809,-5.181,-5.207,-5.2071,0,0,-5.146,-5.1462,-5.1538,-5.1556,-5.1535,-5.1541,-5.1549,-5.1695,-5.1724,-5.1778,-5.1788,-5.1794,-5.181,-5.1812,-5.2069,-5.207,0,0,0,-5.1441,-5.1457,-5.1484,-5.1549,-5.1572,-5.1545,-5.1555,-5.1717,-5.1726,-5.179,-5.1796,-5.1811,-5.1814,-5.2067,-5.2069,-5.2138,0,0,0,-5.1436,-5.1445,-5.1481,-5.1483,-5.157,-5.1646,-5.1574,-5.1716,-5.1732,-5.1795,-5.1811,-5.1815,-5.2066,-5.2068,-5.2133,-5.2169,0,0,0,-5.1423,-5.1444,-5.1465,-5.1483,-5.1542,-5.1644,-5.1661,-5.1719,-5.1736,-5.1808,-5.1816,-5.2065,-5.2068,-5.2128,-5.2162,-5.2236,0,0,0,-5.1409,-5.1526,-5.1467,-5.16,-5.154,-5.1686,-5.166,-5.1769,-5.1839,-5.1812,-5.2066,-5.2069,-5.2126,-5.2157,-5.2231,-5.2297,-5.2325,0,0,-5.1557,-5.1544,-5.1622,-5.1573,-5.1729,-5.1665,-5.1832,-5.1895,-5.1902,-5.2014,-5.202,-5.2134,-5.2161,-5.2235,-5.2488,-5.251,0,0,0,-5.167,-5.1725,-5.1767,-5.1833,-5.1884,-5.193,-5.1969,-5.1992,-5.2087,-5.196,-5.2183,-5.2199,-5.2242,-5.2273,-5.2292,-5.2328,-5.2084,-5.2084,-5.2084,-5.1879,-5.1881,-5.201,-5.2027,-5.2093,-5.2131,-5.2183,-5.2222,-5.2206,-5.2259,-5.229,-5.2444,-5.248,-5.2495,-5.2532,-5.2328,-5.2328,-5.2329,-5.2329,-5.2094,-5.2172,-5.2147,-5.2263,-5.2264,-5.2362,-5.2404,-5.2389,-5.248,-5.242,-5.2458,-5.2389,-5.2519,-5.2552,-5.2334,-5.2333,-5.2333,-5.2332,-5.2332,-5.2229,-5.2266,-5.2293,-5.2389,-5.2463,-5.2478,-5.2566,-5.2566,-5.2566,-5.2604,-5.2636,-5.2635,-5.2631,-5.262,-5.2621,-5.2621,-5.2622,-5.2622,-5.2622,-5.2356,-5.2385,-5.2458,-5.2523,-5.2565,-5.262,-5.2661,-5.2703,-5.2749,-5.2742,-5.2742,-5.2718,-5.2533,-5.2484,-5.263,-5.2629,-5.2628,-5.2627,-5.2627,-5.2567,-5.252,-5.2633,-5.2675,-5.2751,-5.2823,-5.2822,-5.2908,-5.2943,-5.2986,-5.2957,-5.282,-5.2806,-5.2791,-5.275,-5.2957,-5.2957,-5.2957,-5.2957,-5.2678,-5.2672,-5.2787,-5.2854,-5.2921,-5.2931,-5.3059,-5.3093,-5.3121,-5.3142,-5.3113,-5.3061,-5.3046,-5.3041,-5.302,-5.2982,-5.3243,-5.3243,-5.3244,-5.2807,-5.2807,-5.2915,-5.294,-5.2999,-5.305,-5.317,-5.325,-5.3271,-5.3255,-5.3159,-5.3147,-5.3062,-5.3035,-5.3012,-5.298,-5.291,0,0]},{"header":{"parameterUnit":"m.s-1","parameterCategory":1,"la1":30.2992,"la2":30.254,"lo1":-89.0895,"lo2":-89.0443,"dy":0.0025,"dx":0.0025,"nx":19,"ny":19,"refTime":"2026-03-29T21:00:00:Z","depth":0,"parameterNumber":3,"parameterNumberName":"V-component_of_WINDS"},"data":[0,0,0,3.4153,3.4154,3.4199,3.4199,3.4254,3.4254,0,0,0,0,0,0,0,0,0,0,0,3.414,3.414,3.4153,3.4154,3.4199,3.4199,3.4254,3.4254,0,0,0,0,0,0,0,0,0,0,0,3.414,3.414,3.414,3.4155,3.4199,3.4199,3.4254,3.422,0,0,0,0,0,0,0,0,0,0,3.4177,3.4165,3.414,3.414,3.4155,3.4199,3.4199,3.4219,3.4223,3.4233,0,3.4243,0,3.425,3.4258,3.4258,0,0,0,3.4154,3.4162,3.4174,3.4141,3.4155,3.4199,3.4179,3.4221,3.4225,3.4238,3.4244,3.4246,3.4251,3.4258,3.4259,3.4323,3.4324,0,0,3.4152,3.4147,3.4172,3.4177,3.4172,3.4177,3.418,3.4223,3.4229,3.4244,3.4247,3.4252,3.4259,3.4259,3.4323,3.4323,0,0,0,3.4145,3.4145,3.4157,3.4175,3.4183,3.4179,3.4182,3.4227,3.4232,3.4248,3.4252,3.4259,3.426,3.4323,3.4323,3.4335,0,0,0,3.4143,3.4141,3.4156,3.4154,3.4182,3.4206,3.4185,3.4229,3.4234,3.4252,3.4259,3.426,3.4322,3.4323,3.4334,3.4341,0,0,0,3.4137,3.4141,3.4147,3.4153,3.4173,3.4206,3.4212,3.423,3.4236,3.4258,3.426,3.4322,3.4323,3.4333,3.4339,3.4357,0,0,0,3.4128,3.4156,3.4147,3.418,3.4172,3.4213,3.4212,3.4242,3.4263,3.4259,3.4322,3.4323,3.4333,3.4338,3.4356,3.4371,3.4377,0,0,3.416,3.4159,3.4179,3.4173,3.4215,3.4207,3.425,3.4271,3.4277,3.4307,3.4309,3.4334,3.4339,3.4357,3.4412,3.4417,0,0,0,3.4188,3.4202,3.4214,3.4234,3.4253,3.4269,3.4285,3.4293,3.432,3.4292,3.4346,3.4349,3.4359,3.4366,3.437,3.438,3.4327,3.4326,3.4326,3.4225,3.4233,3.4266,3.4279,3.4298,3.4316,3.4332,3.4345,3.4345,3.4358,3.4367,3.44,3.4408,3.4411,3.4421,3.4376,3.4376,3.4376,3.4376,3.4273,3.4294,3.4296,3.4329,3.4336,3.4363,3.4381,3.438,3.4405,3.4394,3.4403,3.4389,3.4416,3.4425,3.4377,3.4377,3.4377,3.4376,3.4376,3.4298,3.431,3.4321,3.4352,3.4375,3.4386,3.4412,3.4417,3.4421,3.4431,3.4441,3.4441,3.4441,3.4436,3.4436,3.4436,3.4436,3.4436,3.4436,3.432,3.4332,3.4354,3.4378,3.4392,3.4411,3.443,3.4443,3.446,3.4461,3.4461,3.446,3.4418,3.4407,3.4438,3.4437,3.4437,3.4437,3.4437,3.4365,3.4356,3.4389,3.4404,3.4432,3.4455,3.4462,3.4489,3.4501,3.4513,3.4511,3.4479,3.4478,3.4475,3.4466,3.4509,3.4509,3.451,3.451,3.4386,3.4386,3.4422,3.4445,3.4468,3.4479,3.4515,3.453,3.4543,3.4551,3.4546,3.4535,3.4531,3.4532,3.4527,3.4519,3.4575,3.4575,3.4575,3.4414,3.4417,3.4448,3.4463,3.4486,3.4506,3.454,3.4565,3.4578,3.4578,3.4557,3.4554,3.4536,3.453,3.4528,3.4521,3.4506,0,0]}]]